Location: Newark
(44.1667°N, 8.2500°E)
Time: 05:13:07
(UTC+00:00)

S-56A Canister/Altair - Pass Details

Date: 12 December 2019
Orbit: 634 x 2498 km, 38.9° (Epoch: 18 January)

Event Time Altitude Azimuth Distance (km) Brightness Sun altitude
Rises 06:45:23 0° 193° (SSW) 5,179 12.0 -1.9°
Reaches altitude 10° 06:49:25 10° 180° (S) 4,456 11.9 -1.3°
Maximum altitude 06:58:49 25° 133° (SE) 3,840 12.5 0.1°
Drops below altitude 10° 07:09:32 10° 87° (E) 5,161 12.7 1.7°
Sets 07:14:38 0° 76° (ENE) 6,163 12.8 2.4°
